Terug naar catalogus

COSMOS 397 DEB *

ActiefLEO
NORAD 5763·DEBRIS·🇷🇺 Russia

Gelanceerd Feb 25, 1971 vanaf Baikonur Cosmodrome

Loading…

Volgende Passages (komende 24 uur)

TLE

VersSource: Space-Track

Epoch: Sep 13, 2026, 11:24 UTC

1 05763U 71015CF  26256.47567725  .00001160  00000-0  14652-2 0  9997
2 05763  66.8984  73.9175 0368353 196.3326 162.5600 13.41898591664728

Volg COSMOS 397 DEB * in realtime met AllMySat

Download on the App Store